Time,TemperatureF,DewpointF,PressureIn,WindDirection,WindDirectionDegrees,WindSpeedMPH,WindSpeedGustMPH,Humidity,HourlyPrecipIn,Conditions,Clouds,dailyrainin,SoftwareType,DateUTC
2013-04-15 00:00:00,24.7,19.0,29.80,SE,131,0.0,1.0,80,0.00,,,0.00,weatherlink.com 1.10,2013-04-15 06:00:00,
2013-04-15 00:15:00,24.5,19.0,29.79,ESE,123,0.0,1.0,80,0.00,,,0.00,weatherlink.com 1.10,2013-04-15 06:15:00,
2013-04-15 00:30:00,24.5,19.0,29.78,West,281,0.0,1.0,78,0.00,,,0.00,weatherlink.com 1.10,2013-04-15 06:30:00,
2013-04-15 00:45:00,24.5,19.0,29.78,ESE,111,1.0,2.0,80,0.00,,,0.00,weatherlink.com 1.10,2013-04-15 06:45:00,
2013-04-15 01:00:00,24.5,18.0,29.79,SSE,162,0.0,0.0,76,0.00,,,0.00,weatherlink.com 1.10,2013-04-15 07:00:00,
2013-04-15 01:45:00,23.6,16.0,29.82,NW,310,0.0,0.0,73,0.00,,,0.00,weatherlink.com 1.10,2013-04-15 07:45:00,
2013-04-15 02:00:00,23.7,16.0,29.83,East,82,4.0,10.0,71,0.00,,,0.00,weatherlink.com 1.10,2013-04-15 08:00:00,
2013-04-15 02:16:00,22.6,17.0,29.84,NNE,24,0.0,5.0,80,0.00,,,0.00,weatherlink.com 1.10,2013-04-15 08:16:00,
2013-04-15 02:31:00,21.6,18.0,29.83,East,96,0.0,1.0,85,0.00,,,0.00,weatherlink.com 1.10,2013-04-15 08:31:00,
2013-04-15 02:46:00,21.2,18.0,29.83,East,96,0.0,1.0,87,0.00,,,0.00,weatherlink.com 1.10,2013-04-15 08:46:00,
2013-04-15 03:46:00,20.8,18.0,29.80,WNW,293,0.0,0.0,87,0.00,,,0.00,weatherlink.com 1.10,2013-04-15 09:46:00,
2013-04-15 04:46:00,19.7,17.0,29.77,NE,49,1.0,4.0,89,0.00,,,0.00,weatherlink.com 1.10,2013-04-15 10:46:00,
2013-04-15 05:01:00,19.3,17.0,29.77,East,94,1.0,1.0,89,0.00,,,0.00,weatherlink.com 1.10,2013-04-15 11:01:00,
2013-04-15 05:16:00,19.0,16.0,29.77,East,81,0.0,1.0,89,0.00,,,0.00,weatherlink.com 1.10,2013-04-15 11:16:00,
2013-04-15 05:31:00,19.0,16.0,29.78,ENE,70,0.0,1.0,88,0.00,,,0.00,weatherlink.com 1.10,2013-04-15 11:31:00,
2013-04-15 06:01:00,18.8,16.0,29.79,East,96,1.0,3.0,89,0.00,,,0.00,weatherlink.com 1.10,2013-04-15 12:01:00,
2013-04-15 06:16:00,18.3,16.0,29.79,NE,38,0.0,3.0,90,0.00,,,0.00,weatherlink.com 1.10,2013-04-15 12:16:00,
2013-04-15 06:31:00,18.1,16.0,29.82,East,99,3.0,3.0,90,0.00,,,0.00,weatherlink.com 1.10,2013-04-15 12:31:00,
2013-04-15 06:46:00,17.9,16.0,29.83,NW,317,1.0,3.0,90,0.00,,,0.00,weatherlink.com 1.10,2013-04-15 12:46:00,
2013-04-15 07:01:00,17.8,15.0,29.84,NW,315,0.0,0.0,90,0.00,,,0.00,weatherlink.com 1.10,2013-04-15 13:01:00,
2013-04-15 07:16:00,17.9,16.0,29.83,ENE,75,0.0,0.0,90,0.00,,,0.00,weatherlink.com 1.10,2013-04-15 13:16:00,
2013-04-15 08:16:00,18.2,16.0,29.85,East,84,0.0,0.0,89,0.00,,,0.00,weatherlink.com 1.10,2013-04-15 14:16:00,
2013-04-15 08:46:00,18.4,16.0,29.82,ENE,77,0.0,0.0,89,0.00,,,0.00,weatherlink.com 1.10,2013-04-15 14:46:00,
2013-04-15 09:01:00,19.1,16.0,29.85,WNW,291,0.0,0.0,87,0.00,,,0.00,weatherlink.com 1.10,2013-04-15 15:01:00,
2013-04-15 09:16:00,18.8,16.0,29.84,ENE,76,0.0,0.0,87,0.00,,,0.00,weatherlink.com 1.10,2013-04-15 15:16:00,
2013-04-15 09:31:00,18.5,16.0,29.84,NE,49,0.0,0.0,89,0.00,,,0.00,weatherlink.com 1.10,2013-04-15 15:31:00,
2013-04-15 09:46:00,18.4,16.0,29.84,ENE,67,0.0,0.0,90,0.00,,,0.00,weatherlink.com 1.10,2013-04-15 15:46:00,
2013-04-15 10:31:00,19.4,17.0,29.85,East,91,0.0,0.0,90,0.00,,,0.00,weatherlink.com 1.10,2013-04-15 16:31:00,
2013-04-15 10:47:00,19.0,16.0,29.85,ENE,72,0.0,0.0,89,0.00,,,0.00,weatherlink.com 1.10,2013-04-15 16:47:00,
2013-04-15 11:16:00,18.5,16.0,29.86,NW,309,0.0,0.0,88,0.00,,,0.00,weatherlink.com 1.10,2013-04-15 17:16:00,
2013-04-15 11:31:00,18.7,16.0,29.86,ENE,58,0.0,0.0,89,0.00,,,0.00,weatherlink.com 1.10,2013-04-15 17:31:00,
2013-04-15 11:47:00,18.9,17.0,29.86,ESE,117,0.0,0.0,90,0.00,,,0.00,weatherlink.com 1.10,2013-04-15 17:47:00,
2013-04-15 12:17:00,18.6,16.0,29.86,East,84,0.0,0.0,90,0.00,,,0.00,weatherlink.com 1.10,2013-04-15 18:17:00,
2013-04-15 12:32:00,19.4,17.0,29.86,NE,53,0.0,0.0,91,0.00,,,0.00,weatherlink.com 1.10,2013-04-15 18:32:00,
2013-04-15 12:47:00,20.9,18.0,29.88,NE,53,0.0,0.0,87,0.00,,,0.00,weatherlink.com 1.10,2013-04-15 18:47:00,
2013-04-15 13:02:00,20.1,17.0,29.85,ENE,65,0.0,0.0,88,0.00,,,0.00,weatherlink.com 1.10,2013-04-15 19:02:00,
2013-04-15 13:17:00,20.6,18.0,29.86,East,79,0.0,0.0,88,0.00,,,0.00,weatherlink.com 1.10,2013-04-15 19:17:00,
2013-04-15 13:32:00,21.2,18.0,29.88,ENE,64,0.0,0.0,88,0.00,,,0.00,weatherlink.com 1.10,2013-04-15 19:32:00,
2013-04-15 13:47:00,22.1,19.0,29.86,NE,53,0.0,0.0,88,0.00,,,0.00,weatherlink.com 1.10,2013-04-15 19:47:00,
2013-04-15 14:02:00,22.8,20.0,29.87,ENE,60,0.0,0.0,87,0.00,,,0.00,weatherlink.com 1.10,2013-04-15 20:02:00,
2013-04-15 14:17:00,22.8,20.0,29.88,ENE,63,0.0,0.0,87,0.00,,,0.00,weatherlink.com 1.10,2013-04-15 20:17:00,
2013-04-15 14:33:00,23.2,20.0,29.88,NW,326,0.0,0.0,88,0.00,,,0.00,weatherlink.com 1.10,2013-04-15 20:33:00,
2013-04-15 14:47:00,23.3,20.0,29.87,NNE,28,0.0,0.0,87,0.00,,,0.00,weatherlink.com 1.10,2013-04-15 20:47:00,
2013-04-15 15:02:00,22.8,20.0,29.88,NE,34,0.0,0.0,89,0.00,,,0.00,weatherlink.com 1.10,2013-04-15 21:02:00,
2013-04-15 15:17:00,22.9,20.0,29.88,ENE,60,0.0,0.0,87,0.00,,,0.00,weatherlink.com 1.10,2013-04-15 21:17:00,
2013-04-15 15:32:00,24.0,22.0,29.86,ENE,72,0.0,0.0,90,0.00,,,0.00,weatherlink.com 1.10,2013-04-15 21:32:00,
2013-04-15 15:47:00,23.8,21.0,29.88,NE,56,0.0,0.0,89,0.00,,,0.00,weatherlink.com 1.10,2013-04-15 21:47:00,
2013-04-15 16:02:00,25.0,22.0,29.89,NW,317,0.0,0.0,88,0.00,,,0.00,weatherlink.com 1.10,2013-04-15 22:02:00,
2013-04-15 16:17:00,24.7,22.0,29.88,East,83,0.0,0.0,88,0.00,,,0.00,weatherlink.com 1.10,2013-04-15 22:17:00,
2013-04-15 16:32:00,24.6,22.0,29.89,ENE,76,0.0,0.0,90,0.00,,,0.00,weatherlink.com 1.10,2013-04-15 22:32:00,
2013-04-15 16:47:00,24.7,22.0,29.88,West,271,0.0,0.0,89,0.00,,,0.00,weatherlink.com 1.10,2013-04-15 22:47:00,
2013-04-15 17:02:00,24.6,22.0,29.89,WNW,300,0.0,0.0,88,0.00,,,0.00,weatherlink.com 1.10,2013-04-15 23:02:00,
2013-04-15 17:17:00,25.0,22.0,29.90,WNW,300,0.0,0.0,89,0.00,,,0.00,weatherlink.com 1.10,2013-04-15 23:17:00,
2013-04-15 17:32:00,25.3,23.0,29.91,WNW,300,0.0,0.0,89,0.00,,,0.00,weatherlink.com 1.10,2013-04-15 23:32:00,
2013-04-15 17:47:00,24.4,22.0,29.92,NE,48,0.0,0.0,91,0.00,,,0.00,weatherlink.com 1.10,2013-04-15 23:47:00,
2013-04-15 18:02:00,24.6,22.0,29.91,North,1,0.0,0.0,91,0.00,,,0.00,weatherlink.com 1.10,2013-04-16 00:02:00,
2013-04-15 18:17:00,24.8,23.0,29.93,WSW,253,0.0,0.0,91,0.00,,,0.00,weatherlink.com 1.10,2013-04-16 00:17:00,
2013-04-15 18:32:00,25.1,23.0,29.94,ENE,65,0.0,0.0,92,0.00,,,0.00,weatherlink.com 1.10,2013-04-16 00:32:00,
2013-04-15 18:47:00,24.8,23.0,29.93,ENE,64,0.0,0.0,92,0.00,,,0.00,weatherlink.com 1.10,2013-04-16 00:47:00,
2013-04-15 19:02:00,24.5,23.0,29.93,East,79,0.0,0.0,92,0.00,,,0.00,weatherlink.com 1.10,2013-04-16 01:02:00,
2013-04-15 19:17:00,24.6,23.0,29.95,ENE,70,0.0,0.0,92,0.00,,,0.00,weatherlink.com 1.10,2013-04-16 01:17:00,
2013-04-15 19:32:00,23.6,22.0,29.96,East,94,0.0,0.0,92,0.00,,,0.00,weatherlink.com 1.10,2013-04-16 01:32:00,
2013-04-15 19:47:00,22.6,20.0,29.96,ESE,111,0.0,0.0,91,0.00,,,0.00,weatherlink.com 1.10,2013-04-16 01:47:00,
2013-04-15 20:02:00,21.3,19.0,29.97,ENE,61,0.0,0.0,91,0.00,,,0.00,weatherlink.com 1.10,2013-04-16 02:02:00,
2013-04-15 20:17:00,20.3,18.0,29.97,NE,56,0.0,0.0,91,0.00,,,0.00,weatherlink.com 1.10,2013-04-16 02:17:00,
2013-04-15 20:32:00,20.2,18.0,29.98,ENE,70,0.0,0.0,92,0.00,,,0.00,weatherlink.com 1.10,2013-04-16 02:32:00,
2013-04-15 20:47:00,19.4,17.0,29.98,East,82,0.0,0.0,90,0.00,,,0.00,weatherlink.com 1.10,2013-04-16 02:47:00,
2013-04-15 21:02:00,17.9,15.0,30.01,ENE,75,0.0,0.0,89,0.00,,,0.00,weatherlink.com 1.10,2013-04-16 03:02:00,
2013-04-15 21:17:00,17.2,15.0,30.00,ESE,110,0.0,0.0,90,0.00,,,0.00,weatherlink.com 1.10,2013-04-16 03:17:00,
2013-04-15 21:32:00,17.1,15.0,30.01,ENE,57,0.0,0.0,91,0.00,,,0.00,weatherlink.com 1.10,2013-04-16 03:32:00,
2013-04-15 21:47:00,16.9,15.0,30.03,ENE,63,0.0,0.0,91,0.00,,,0.00,weatherlink.com 1.10,2013-04-16 03:47:00,
2013-04-15 22:02:00,16.8,15.0,30.02,NE,34,0.0,0.0,91,0.00,,,0.00,weatherlink.com 1.10,2013-04-16 04:02:00,
2013-04-15 22:17:00,16.9,15.0,30.03,ENE,59,0.0,0.0,91,0.00,,,0.00,weatherlink.com 1.10,2013-04-16 04:17:00,
2013-04-15 22:32:00,17.1,15.0,30.03,ENE,60,0.0,0.0,91,0.00,,,0.00,weatherlink.com 1.10,2013-04-16 04:32:00,
2013-04-15 22:47:00,17.2,15.0,30.03,ENE,59,0.0,0.0,91,0.00,,,0.00,weatherlink.com 1.10,2013-04-16 04:47:00,
2013-04-15 23:02:00,17.4,16.0,30.04,ENE,59,0.0,0.0,92,0.00,,,0.00,weatherlink.com 1.10,2013-04-16 05:02:00,
2013-04-15 23:17:00,17.6,16.0,30.04,NE,56,0.0,0.0,91,0.00,,,0.00,weatherlink.com 1.10,2013-04-16 05:17:00,
2013-04-15 23:32:00,16.9,15.0,30.04,ESE,103,0.0,0.0,91,0.00,,,0.00,weatherlink.com 1.10,2013-04-16 05:32:00,
2013-04-15 23:47:00,16.4,14.0,30.05,ENE,58,0.0,0.0,90,0.00,,,0.00,weatherlink.com 1.10,2013-04-16 05:47:00,